Mountain Home, ID

2:35 PM MDT on May 25, 2017 (GMT -0600)
Mountain Home Air Force Base

Weather History for KMUO - February, 2013

Change the Weather History Date:

Sunday, February 17, 2013

  Actual Average Record
Temperature  
Mean Temperature 33 °F 35 °F  
Max Temperature 44 °F 45 °F 66 °F (1977)
Min Temperature 22 °F 24 °F -2 °F (1933)
Degree Days  
Heating Degree Days 32 30  
Month to date heating degree days 500 533  
Cooling Degree Days 0 0  
Month to date cooling degree days 0 0  
Moisture  
Dew Point 22 °F    
Average Humidity 62    
Maximum Humidity 83    
Minimum Humidity 37    
Precipitation  
Precipitation T in 0.03 in 0.65 in (1912)
Month to date precipitation T 0.49  
Sea Level Pressure  
Sea Level Pressure 30.08 in    
Wind  
Wind Speed 15 mph (NW)    
Max Wind Speed 26 mph    
Max Gust Speed 36 mph    
Visibility 10 miles    
Events Rain    
T = Trace of Precipitation, MM = Missing Value Source: NWS Daily Summary

Daily Weather History Graph

Daily Weather History Graph

Search for Another Location

Airport or City:

Trip Planner

Search our weather history database for the weather conditions in past years. The results will help you decide how hot, cold, wet, or windy it might be!

Date:

Astronomy

Feb. 17, 2013 Rise Set
Actual Time 7:37 AM MST 6:17 PM MST
Civil Twilight 7:08 AM MST 6:46 PM MST
Nautical Twilight 6:35 AM MST 7:20 PM MST
Astronomical Twilight 6:02 AM MST 7:52 PM MST
Moon 11:21 AM MST (2/17) 1:29 AM MST (2/17)
Length of Visible Light 11h 38m
Length of Day
10h 40m
Waxing Crescent, 49% of the Moon is Illuminated
Feb 17
Waxing Crescent
Feb 17
First Quarter
Feb 25
Full
Mar 4
Last Quarter
Mar 11
New

Hourly Weather History & Observations

Time (MST) Temp. Windchill Dew Point Humidity Pressure Visibility Wind Dir Wind Speed Gust Speed Precip Events Conditions
12:03 AM 41.0 °F 30.5 °F 32.0 °F 70% 29.98 in 10.0 mi NNW 26.5 mph 35.7 mph N/A   Overcast
12:58 AM 38.5 °F 29.6 °F 32.7 °F 80% 30.01 in 10.0 mi NNW 16.1 mph - 0.00 in Rain Light Rain
1:18 AM 37.4 °F 30.3 °F 32.0 °F 81% 30.00 in 10.0 mi NW 10.4 mph - N/A   Overcast
1:58 AM 36.9 °F 29.6 °F 32.0 °F 83% 30.02 in 10.0 mi NW 10.4 mph - 0.00 in   Overcast
2:58 AM 35.4 °F 27.3 °F 29.5 °F 79% 30.02 in 10.0 mi NW 11.5 mph - N/A   Clear
3:28 AM 33.8 °F 25.8 °F 28.4 °F 81% 30.01 in 10.0 mi NW 10.4 mph - N/A   Mostly Cloudy
3:43 AM 33.8 °F 28.6 °F 28.4 °F 81% 30.01 in 10.0 mi WNW 5.8 mph - N/A   Scattered Clouds
3:58 AM 33.3 °F 27.9 °F 27.9 °F 81% 30.03 in 10.0 mi NW 5.8 mph - N/A   Partly Cloudy
4:58 AM 30.6 °F 20.2 °F 24.6 °F 79% 30.03 in 10.0 mi NW 13.8 mph - N/A   Clear
5:58 AM 30.9 °F 20.7 °F 21.4 °F 68% 30.05 in 10.0 mi NW 13.8 mph - N/A   Clear
6:58 AM 29.1 °F 18.4 °F 20.7 °F 71% 30.08 in 10.0 mi WNW 13.8 mph - N/A   Clear
7:58 AM 28.0 °F 19.3 °F 20.3 °F 73% 30.10 in 10.0 mi WNW 9.2 mph - N/A   Clear
8:58 AM 32.0 °F 22.1 °F 21.0 °F 64% 30.10 in 10.0 mi WNW 13.8 mph - N/A   Clear
9:58 AM 37.0 °F 26.7 °F 22.5 °F 56% 30.11 in 10.0 mi NW 19.6 mph 25.3 mph N/A   Clear
10:58 AM 39.2 °F 28.7 °F 20.1 °F 46% 30.12 in 10.0 mi NNW 23.0 mph 27.6 mph N/A   Clear
11:58 AM 40.6 °F 30.9 °F 19.6 °F 43% 30.10 in 10.0 mi NNW 21.9 mph - N/A   Clear
12:58 PM 41.5 °F 32.6 °F 19.2 °F 41% 30.09 in 10.0 mi NW 19.6 mph 24.2 mph N/A   Clear
1:58 PM 43.2 °F 35.0 °F 19.8 °F 39% 30.07 in 10.0 mi NW 18.4 mph 25.3 mph N/A   Partly Cloudy
2:58 PM 44.1 °F 35.2 °F 19.4 °F 37% 30.07 in 10.0 mi NW 23.0 mph 27.6 mph N/A   Partly Cloudy
3:58 PM 43.3 °F 35.2 °F 18.5 °F 37% 30.09 in 10.0 mi NW 18.4 mph 25.3 mph N/A   Scattered Clouds
4:58 PM 42.6 °F 34.0 °F 18.3 °F 38% 30.10 in 10.0 mi NW 19.6 mph - N/A   Clear
5:58 PM 40.5 °F 32.8 °F 18.3 °F 41% 30.11 in 10.0 mi NW 13.8 mph - N/A   Clear
6:58 PM 37.8 °F 30.7 °F 17.8 °F 44% 30.13 in 10.0 mi NW 10.4 mph - N/A   Clear
7:58 PM 35.1 °F 26.9 °F 17.4 °F 49% 30.14 in 10.0 mi NNW 11.5 mph - N/A   Clear
8:58 PM 26.1 °F 18.4 °F 15.8 °F 65% 30.15 in 10.0 mi NW 6.9 mph - N/A   Clear
9:58 PM 24.8 °F 19.1 °F 16.5 °F 71% 30.16 in 10.0 mi WNW 4.6 mph - N/A   Clear
10:58 PM 24.6 °F 15.8 °F 15.6 °F 69% 30.16 in 10.0 mi South 8.1 mph - N/A   Clear
11:58 PM 24.1 °F - 15.8 °F 71% 30.16 in 10.0 mi West 2.3 mph - N/A   Clear